Weather Roundup
Issued by NWS

Home | Current Version | Previous Version | Graphics & Text | Print | Product List | Glossary Off
Versions: 1 2 3 4 5 6 7 8 9 10 11 12 13 14 15 16 17 18 19 20 21 22 23 24 25 26 27 28 29 30 31 32 33 34 35 36 37 38 39 40 41 42 43 44 45 46 47 48 49 50

000
NZUS93 KARX 231310
HRRWXR

CURRENT HOURLY OBSERVATIONS ACROSS
MUCH OF THE UPPER MISSISSIPPI VALLEY
NATIONAL WEATHER SERVICE LA CROSSE WI
700 AM CST SUN NOV 23 2014


...SOUTHEAST MINNESOTA...


CITY           SKY/WX    TMP DP  RH WIND       PRES   REMARKS
ROCHESTER      FOG       48  47  96 S14       29.51S VSB 3/4
ROCHESTER/MAYO CLOUDY    49  49  97 SE7       29.49F
WINONA         MOCLDY    52  48  87 S7        29.52S
AUSTIN         FOG       48  46  93 S13       29.49S VSB 1
ALBERT LEA     CLOUDY    50  50 100 S12       29.47R FOG
DODGE CENTER   FOG       48  48 100 S17       29.48S VSB 1/4
PRESTON        CLOUDY    47  47  97 S15       29.52S FOG
OWATONNA       CLOUDY    48  46  93 S9        29.48R FOG
FARIBAULT      CLOUDY    50  48  93 S5        29.48R FOG
$$

...ELSEWHERE IN MINNESOTA...


CITY           SKY/WX    TMP DP  RH WIND       PRES   REMARKS
MINNEAPOLIS    CLOUDY    47  46  97 CALM      29.46R FOG
INTNL FALLS    CLOUDY    33  32  96 CALM      29.39S FOG
DULUTH         FOG       36  34  92 SE3       29.40S VSB 1/8
RED WING         N/A     52  48  87 S7        29.47S
REDWOOD FALLS  CLOUDY    44  41  89 W8        29.43S
MANKATO        CLOUDY    52  46  82 S10       29.45S
WORTHINGTON    CLOUDY    46  45  93 SW7       29.45R VSB 1/2
FAIRMONT       CLOUDY    50  46  87 S9        29.45S
$$

...SOUTHWEST WISCONSIN...


CITY           SKY/WX    TMP DP  RH WIND       PRES   REMARKS
LA CROSSE      LGT RAIN  51  48  89 S15       29.54S FOG
PRAIRIE DU CHI CLOUDY    51  48  90 SE6       29.57F
BOSCOBEL       CLOUDY    52  49  89 S8        29.59F
LONE ROCK      CLOUDY    54  48  80 S12       29.61F
PLATTEVILLE    CLOUDY    49  48  97 S12       29.64S
FORT MC COY    CLOUDY    50  48  93 S12G17    29.56S
CAMP DOUGLAS   CLOUDY    49  49 100 S6        29.57S
VIROQUA        CLOUDY    48  48 100 S9        29.56S
WIS DELLS      CLOUDY    47  46  95 S10       29.60F FOG
$$

...ELSEWHERE IN WISCONSIN...


CITY           SKY/WX    TMP DP  RH WIND       PRES   REMARKS
MILWAUKEE      CLOUDY    49  46  90 S10       29.71S FOG
MADISON        DRIZZLE   49  47  93 S9        29.64F FOG
GREEN BAY      CLOUDY    47  46  97 S7        29.63F FOG
EAU CLAIRE     CLOUDY    47  46  97 S9        29.49F
BLACK RVR FLS  FOG       49  49 100 CALM      29.54S VSB 1/2
MEDFORD        FOG       42  41  99 S8        29.53S VSB<1/4
WAUSAU         FOG       44  44 100 S8        29.55F VSB 1/4
WIS RAPIDS     CLOUDY    48  46  93 S8        29.58F
MARSHFIELD     LGT RAIN  46  45  96 S7        29.55F VSB 1/4
RICE LAKE      FOG       41  40  97 SE7       29.48F VSB<1/4
$$

...NORTHEAST IOWA...


CITY           SKY/WX    TMP DP  RH WIND       PRES   REMARKS
DECORAH        CLOUDY    50  50 100 S12G20    29.53S
MASON CITY     CLOUDY    50  49  96 S12       29.51R
CHARLES CITY   CLOUDY    50  50 100 S15       29.53R FOG
OELWEIN        CLOUDY    50  50 100 S18G26    29.56F FOG
$$

...ELSEWHERE IN IOWA...


CITY           SKY/WX    TMP DP  RH WIND       PRES   REMARKS
DES MOINES     DRIZZLE   53  50  89 S14       29.53F
IOWA CITY      CLOUDY    49  49 100 SE6       29.63F
FORT DODGE     CLOUDY    52  48  87 S14       29.50R
$$

...NORTHERN ILLINOIS...


CITY           SKY/WX    TMP DP  RH WIND       PRES   REMARKS
CHICAGO-OHARE  CLOUDY    49  41  74 S15       29.74S
CHICAGO-MIDWAY CLOUDY    51  42  71 S12       29.76S
MOLINE         LGT RAIN  52  47  83 S13       29.65F
ROCKFORD       CLOUDY    48  44  86 S12       29.72S
PEORIA         LGT RAIN  52  43  71 S13       29.72F
$$

NOTE: "FAIR" INDICATES FEW OR NO CLOUDS BELOW 12,000 FEET WITH NO
SIGNIFICANT WEATHER AND/OR OBSTRUCTIONS TO VISIBILITY. WIND
SPEEDS ARE IN MILES-PER-HOUR.



USA.gov is the U.S. government's official web portal to all federal, state and local government web resources and services.